New Roads False River Regiona, LA

5:39 AM CDT on October 16, 2019 (GMT -0500)
False River

Weather History for KHZR - September, 2019

Change the Weather History Date:

Sunday, September 15, 2019

  Actual Average (KBTR) Record (KBTR)
Temperature  
Mean Temperature 82 °F -  
Max Temperature 93 °F 87 °F 97 °F (1921)
Min Temperature 71 °F 69 °F 49 °F (1902)
Cooling Degree Days 17    
Growing Degree Days 32 (Base 50)    
Moisture  
Dew Point 70 °F    
Average Humidity 72    
Maximum Humidity 100    
Minimum Humidity 44    
Precipitation  
Precipitation 0.00 in - - ()
Sea Level Pressure  
Sea Level Pressure 30.03 in    
Wind  
Wind Speed 3 mph ()    
Max Wind Speed 13 mph    
Max Gust Speed 18 mph    
Visibility 10.0 miles    
Events      
Averages and records for this station are not official NWS values.
T = Trace of Precipitation, MM = Missing Value Source: Averaged Metar Reports

Daily Weather History Graph

Daily Weather History Graph

Search for Another Location

Airport or City:

Astronomy

Sep. 15, 2019 Rise Set
Actual Time 6:50 AM CDT 7:11 PM CDT
Civil Twilight 6:25 AM CDT 7:35 PM CDT
Nautical Twilight 5:57 AM CDT 8:04 PM CDT
Astronomical Twilight 5:29 AM CDT 8:32 PM CDT
Moon 8:23 PM CDT (9/15) 7:59 AM CDT (9/15)
Length of Visible Light 13h 09m
Length of Day
12h 21m
Full, 98% of the Moon is Illuminated
Sep 15
Full
Sep 21
Last Quarter
Sep 28
New
Oct 5
First Quarter
Oct 13
Full

Hourly Weather History & Observations

Time (CDT) Temp. Heat Index Dew Point Humidity Pressure Visibility Wind Dir Wind Speed Gust Speed Precip Events Conditions
12:56 AM 75.2 °F - 71.6 °F 89% 30.06 in 10.0 mi Calm Calm - N/A   Clear
1:17 AM 73.4 °F - 69.8 °F 88% 30.06 in 10.0 mi Calm Calm - N/A   Clear
1:57 AM 71.6 °F - 71.6 °F 100% 30.06 in 10.0 mi Calm Calm - N/A   Clear
2:17 AM 73.4 °F - 71.6 °F 94% 30.06 in 10.0 mi Calm Calm - N/A   Clear
2:36 AM 73.4 °F - 71.6 °F 94% 30.05 in 10.0 mi Calm Calm - N/A   Clear
2:57 AM 71.6 °F - 71.6 °F 100% 30.05 in 10.0 mi Calm Calm - N/A   Clear
3:36 AM 73.4 °F - 71.6 °F 94% 30.06 in 10.0 mi Calm Calm - N/A   Clear
3:56 AM 73.4 °F - 71.6 °F 94% 30.05 in 10.0 mi Calm Calm - N/A   Clear
4:18 AM 73.4 °F - 71.6 °F 94% 30.05 in 10.0 mi Calm Calm - N/A   Clear
4:36 AM 73.4 °F - 71.6 °F 94% 30.04 in 10.0 mi Calm Calm - N/A   Clear
4:58 AM 73.4 °F - 71.6 °F 94% 30.04 in 10.0 mi North 3.5 mph - N/A   Clear
5:20 AM 73.4 °F - 71.6 °F 94% 30.05 in 10.0 mi Calm Calm - N/A   Clear
5:38 AM 71.6 °F - 69.8 °F 94% 30.04 in 10.0 mi Calm Calm - N/A   Clear
5:57 AM 73.4 °F - 69.8 °F 88% 30.04 in 10.0 mi Calm Calm - N/A   Clear
6:37 AM 71.6 °F - 69.8 °F 94% 30.05 in 10.0 mi Calm Calm - N/A   Clear
6:56 AM 71.6 °F - 69.8 °F 94% 30.06 in 10.0 mi NNE 5.8 mph - N/A   Clear
7:16 AM 73.4 °F - 69.8 °F 88% 30.06 in 10.0 mi Calm Calm - N/A   Clear
7:38 AM 73.4 °F - 69.8 °F 88% 30.06 in 10.0 mi NE 4.6 mph - N/A   Clear
7:58 AM 75.2 °F - 69.8 °F 83% 30.06 in 10.0 mi NE 5.8 mph - N/A   Clear
8:16 AM 77.0 °F - 69.8 °F 78% 30.06 in 10.0 mi NNE 5.8 mph - N/A   Clear
8:59 AM 80.6 °F 83.9 °F 69.8 °F 70% 30.06 in 10.0 mi ENE 6.9 mph - N/A   Clear
9:17 AM 82.4 °F 87.2 °F 71.6 °F 70% 30.06 in 10.0 mi NE 6.9 mph - N/A   Clear
9:37 AM 82.4 °F 87.2 °F 71.6 °F 70% 30.07 in 10.0 mi East 9.2 mph - N/A   Clear
9:57 AM 84.2 °F 89.6 °F 71.6 °F 66% 30.07 in 10.0 mi ENE 5.8 mph - N/A   Clear
10:37 AM 86.0 °F 91.8 °F 71.6 °F 62% 30.06 in 10.0 mi East 5.8 mph - N/A   Clear
11:00 AM 86.0 °F 91.8 °F 71.6 °F 62% 30.06 in 10.0 mi East 6.9 mph - N/A   Clear
11:19 AM 87.8 °F 93.8 °F 71.6 °F 58% 30.06 in 10.0 mi ENE 10.4 mph - N/A   Clear
11:58 AM 89.6 °F 94.7 °F 69.8 °F 52% 30.05 in 10.0 mi NE 12.7 mph 17.3 mph N/A   Clear
12:38 PM 89.6 °F 94.7 °F 69.8 °F 52% 30.04 in 10.0 mi NNE 10.4 mph - N/A   Clear
12:58 PM 89.6 °F 94.7 °F 69.8 °F 52% 30.03 in 10.0 mi NE 8.1 mph 18.4 mph N/A   Scattered Clouds
1:57 PM 91.4 °F 96.8 °F 69.8 °F 49% 30.01 in 10.0 mi NE 9.2 mph - N/A   Scattered Clouds
2:17 PM 91.4 °F 95.4 °F 68.0 °F 46% 30.00 in 10.0 mi ENE 8.1 mph - N/A   Clear
2:38 PM 91.4 °F 95.4 °F 68.0 °F 46% 29.99 in 10.0 mi NE 8.1 mph - N/A   Scattered Clouds
2:59 PM 91.4 °F 96.8 °F 69.8 °F 49% 29.98 in 10.0 mi NNE 8.1 mph - N/A   Clear
3:16 PM 93.2 °F 97.7 °F 68.0 °F 44% 29.97 in 10.0 mi NE 9.2 mph - N/A   Clear
3:58 PM 93.2 °F 97.7 °F 68.0 °F 44% 29.97 in 10.0 mi ENE 8.1 mph 16.1 mph N/A   Scattered Clouds
4:39 PM 93.2 °F 98.8 °F 69.8 °F 46% 29.97 in 10.0 mi NE 12.7 mph 18.4 mph N/A   Scattered Clouds
4:57 PM 91.4 °F 95.4 °F 68.0 °F 46% 29.97 in 10.0 mi ENE 8.1 mph - N/A   Clear
5:57 PM 89.6 °F 92.2 °F 66.2 °F 46% 29.97 in 10.0 mi NE 6.9 mph - N/A   Clear
6:19 PM 89.6 °F 92.2 °F 66.2 °F 46% 29.98 in 10.0 mi NE 8.1 mph - N/A   Clear
6:37 PM 87.8 °F 90.4 °F 66.2 °F 49% 29.98 in 10.0 mi ENE 8.1 mph - N/A   Clear
6:56 PM 86.0 °F 89.4 °F 68.0 °F 55% 29.98 in 10.0 mi NE 4.6 mph - N/A   Clear
7:18 PM 84.2 °F 87.3 °F 68.0 °F 58% 29.98 in 10.0 mi Calm Calm - N/A   Clear
7:37 PM 84.2 °F 88.4 °F 69.8 °F 62% 29.98 in 10.0 mi NE 3.5 mph - N/A   Clear
7:56 PM 82.4 °F 86.3 °F 69.8 °F 66% 29.98 in 10.0 mi NE 3.5 mph - N/A   Clear
8:16 PM 82.4 °F 87.2 °F 71.6 °F 70% 29.99 in 10.0 mi NNE 3.5 mph - N/A   Clear
8:37 PM 82.4 °F 87.2 °F 71.6 °F 70% 29.99 in 10.0 mi ENE 3.5 mph - N/A   Clear
8:59 PM 80.6 °F 83.9 °F 69.8 °F 70% 30.00 in 10.0 mi Calm Calm - N/A   Clear
9:17 PM 80.6 °F 83.9 °F 69.8 °F 70% 30.01 in 10.0 mi Calm Calm - N/A   Clear
10:19 PM 80.6 °F 84.6 °F 71.6 °F 74% 30.02 in 10.0 mi Calm Calm - N/A   Clear
11:19 PM 77.0 °F - 71.6 °F 83% 30.02 in 10.0 mi Calm Calm - N/A   Clear
11:37 PM 77.0 °F - 71.6 °F 83% 30.02 in 10.0 mi Calm Calm - N/A   Clear
11:56 PM 75.2 °F - 71.6 °F 89% 30.01 in 10.0 mi Calm Calm - N/A   Clear